1491447600.28,59568,13.19,72824.8,-6.05,-6.73,-6.81,0,*59
1491447601.48,59569,13.19,72826.3,-6.05,-6.73,-6.73,0,*55
1491447602.67,59570,13.19,72826.8,-6.05,-6.73,-6.73,0,*5D
1491447603.9,59571,13.19,72826.5,-6.07,-6.77,-6.77,0,*5E
1491447605.12,59572,13.25,72830.3,-6.07,-6.77,-6.77,0,*5D
1491447606.32,59573,13.19,72828.0,-6.05,-6.85,-6.73,0,*57
1491447607.53,59574,13.19,72830.3,-6.05,-6.81,-6.81,0,*59
1491447608.72,59575,13.19,72826.5,-6.05,-6.81,-6.85,0,*5C
1491447609.92,59576,13.19,72824.8,-6.05,-6.85,-6.85,0,*5B
1491447611.17,59577,13.19,72820.8,-6.05,-7.01,-6.97,0,*54
1491447612.41,59578,13.19,72826.0,-6.05,-7.01,-7.01,0,*55
1491447613.69,59579,13.19,72824.3,-6.07,-6.93,-6.93,0,*56
1491447614.91,59580,13.19,72826.0,-6.05,-6.97,-6.89,0,*5D
1491447616.11,59581,13.19,72826.5,-6.05,-6.85,-6.85,0,*53
1491447617.31,59582,13.19,72824.3,-6.05,-6.85,-6.81,0,*54
1491447618.5,59583,13.19,72822.3,-6.05,-6.85,-6.85,0,*51
1491447619.72,59584,13.19,72824.5,-6.05,-6.89,-6.97,0,*59
1491447620.95,59585,13.25,72826.8,-6.05,-6.97,-6.89,0,*58
1491447622.14,59586,13.19,72830.0,-6.05,-6.89,-6.89,0,*54
1491447623.39,59587,13.19,72828.3,-6.05,-6.93,-6.93,0,*55
1491447624.67,59588,13.19,72826.8,-6.07,-6.93,-6.93,0,*58
1491447625.87,59589,13.19,72830.3,-6.05,-6.89,-6.89,0,*5B
1491447627.06,59590,13.19,72828.0,-6.05,-6.89,-6.89,0,*53
1491447628.33,59591,13.19,72832.0,-6.07,-7.01,-6.97,0,*5E
1491447629.6,59592,13.25,72836.5,-6.07,-7.01,-7.05,0,*57
1491447630.82,59593,13.19,72834.5,-6.05,-6.89,-6.97,0,*5F
1491447632.07,59594,13.19,72838.0,-6.07,-7.05,-7.15,0,*54
1491447633.28,59595,13.19,72838.0,-6.05,-7.11,-7.11,0,*56
1491447634.53,59596,13.25,72836.0,-6.07,-7.15,-7.27,0,*56
1491447635.73,59597,13.19,72838.3,-6.09,-7.15,-7.19,0,*54
1491447636.97,59598,13.19,72840.5,-6.09,-7.05,-7.05,0,*57
1491447638.24,59599,13.19,72846.3,-6.07,-6.93,-6.93,0,*58
1491447639.47,59600,13.19,72842.3,-6.07,-6.85,-6.85,0,*5B
1491447640.69,59601,13.19,72848.3,-6.09,-6.93,-6.89,0,*5F
1491447641.89,59602,13.19,72848.0,-6.09,-7.15,-7.15,0,*57
1491447643.14,59603,13.19,72854.3,-6.09,-7.27,-7.31,0,*51
1491447644.34,59604,13.19,72848.3,-6.09,-7.19,-7.19,0,*51
1491447645.58,59605,13.19,72848.8,-6.09,-7.05,-7.05,0,*50
1491447646.81,59606,13.19,72844.3,-6.11,-7.11,-7.11,0,*5A
1491447648.05,59607,13.19,72846.8,-6.09,-7.05,-7.05,0,*52
1491447649.29,59608,13.25,72850.0,-6.09,-7.05,-7.01,0,*59
1491447650.54,59609,13.19,72846.3,-6.09,-7.01,-7.01,0,*5C
1491447651.79,59610,13.25,72848.8,-6.09,-6.93,-6.93,0,*54
1491447653.04,59611,13.19,72846.5,-6.09,-7.01,-7.01,0,*55
1491447654.28,59612,13.19,72846.5,-6.11,-7.11,-7.05,0,*5A
1491447655.53,59613,13.19,72840.5,-6.09,-6.93,-6.93,0,*57
1491447656.81,59614,13.19,72842.0,-6.11,-6.97,-6.97,0,*59
1491447658.06,59615,13.25,72842.3,-6.09,-6.93,-6.93,0,*51
1491447659.28,59616,13.19,72832.8,-6.09,-6.93,-6.89,0,*59
1491447660.53,59617,13.19,72830.8,-6.11,-6.89,-6.93,0,*51
1491447661.73,59618,13.25,72828.8,-6.09,-6.89,-6.89,0,*5C
1491447662.92,59619,13.19,72826.8,-6.09,-6.89,-6.89,0,*5D
1491447664.2,59620,13.19,72834.8,-6.11,-6.93,-6.93,0,*5E
1491447665.45,59621,13.25,72840.8,-6.11,-7.05,-7.11,0,*5A
1491447666.68,59622,13.19,72838.8,-6.11,-7.19,-7.19,0,*5C
1491447667.93,59623,13.25,72842.8,-6.09,-7.31,-7.31,0,*54
1491447669.17,59624,13.19,72838.3,-6.09,-7.39,-7.31,0,*5B
1491447670.44,59625,13.19,72838.0,-6.11,-7.35,-7.35,0,*5B
1491447671.67,59626,13.19,72838.0,-6.11,-7.23,-7.23,0,*58
1491447672.92,59627,13.25,72840.5,-6.11,-7.31,-7.23,0,*5A
1491447674.15,59628,13.19,72838.3,-6.09,-7.19,-7.27,0,*52
1491447675.38,59629,13.19,72834.3,-6.11,-7.23,-7.23,0,*57
1491447676.61,59630,13.19,72834.0,-6.11,-7.19,-7.19,0,*5F
1491447677.88,59631,13.19,72828.8,-6.11,-7.31,-7.31,0,*5E
1491447679.09,59632,13.19,72824.0,-6.13,-7.19,-7.23,0,*56
1491447680.34,59633,13.19,72828.3,-6.13,-7.05,-6.97,0,*54
1491447681.56,59634,13.25,72832.0,-6.13,-6.93,-6.89,0,*52
1491447682.77,59635,13.19,72832.5,-6.13,-6.81,-6.89,0,*50
1491447684.02,59636,13.19,72826.8,-6.13,-6.93,-6.93,0,*5B
1491447685.27,59637,13.19,72826.8,-6.13,-6.93,-6.93,0,*5A
1491447686.55,59638,13.19,72830.0,-6.11,-6.93,-6.93,0,*57
1491447687.8,59639,13.19,72828.5,-6.11,-6.93,-6.89,0,*5D
1491447689.08,59640,13.19,72830.5,-6.11,-6.93,-6.93,0,*58
1491447690.35,59641,13.19,72832.5,-6.11,-6.93,-6.93,0,*59
1491447691.55,59642,13.19,72834.3,-6.09,-6.85,-6.85,0,*53
1491447692.83,59643,13.19,72838.0,-6.11,-6.93,-6.93,0,*5B
1491447694.02,59644,13.19,72838.8,-6.09,-6.89,-6.89,0,*55
1491447695.29,59645,13.19,72840.5,-6.11,-7.05,-7.05,0,*5D
1491447696.55,59646,13.19,72838.3,-6.11,-7.05,-7.05,0,*5E
1491447697.83,59647,13.19,72838.3,-6.11,-6.97,-6.97,0,*5F
1491447699.08,59648,13.19,72830.3,-6.11,-6.97,-6.89,0,*5F
1491447700.33,59649,13.19,72832.5,-6.11,-6.89,-6.93,0,*5A
1491447701.58,59650,13.19,72830.5,-6.11,-6.89,-6.93,0,*52
1491447702.85,59651,13.19,72832.8,-6.11,-6.93,-6.93,0,*58
1491447704.05,59652,13.19,72834.0,-6.09,-6.89,-6.89,0,*52
1491447705.33,59653,13.19,72834.3,-6.11,-6.93,-6.93,0,*5A
1491447706.6,59654,13.19,72832.0,-6.11,-6.97,-6.93,0,*59
1491447707.88,59655,13.19,72834.3,-6.11,-6.97,-6.97,0,*5C
1491447709.15,59656,13.19,72834.3,-6.11,-6.97,-6.97,0,*5F
1491447710.4,59657,13.19,72834.8,-6.09,-7.01,-6.93,0,*5D
1491447711.68,59658,13.19,72828.3,-6.11,-6.97,-6.97,0,*51
1491447712.95,59659,13.19,72832.8,-6.11,-6.97,-6.97,0,*50
1491447714.18,59660,13.19,72838.0,-6.09,-6.93,-6.89,0,*58
1491447715.45,59661,13.19,72836.8,-6.11,-6.97,-6.97,0,*5B
1491447716.73,59662,13.19,72840.0,-6.11,-6.97,-6.97,0,*58
1491447718.0,59663,13.19,72838.3,-6.11,-7.05,-6.97,0,*53
1491447719.27,59664,13.19,72838.0,-6.11,-7.05,-7.05,0,*5E
1491447720.53,59665,13.19,72838.8,-6.11,-7.05,-7.05,0,*5F
1491447721.77,59666,13.19,72842.5,-6.09,-7.05,-7.05,0,*55
1491447723.02,59667,13.19,72844.0,-6.11,-7.11,-6.97,0,*52
1491447724.3,59668,13.19,72850.5,-6.11,-6.97,-6.97,0,*52
1491447725.58,59669,13.19,72844.0,-6.11,-6.97,-6.97,0,*53
1491447726.83,59670,13.19,72842.5,-6.13,-6.97,-6.97,0,*59
1491447728.08,59671,13.19,72846.3,-6.11,-6.93,-6.89,0,*51
1491447729.35,59672,13.19,72844.8,-6.11,-6.97,-6.97,0,*59
1491447730.58,59673,13.19,72840.5,-6.13,-7.11,-6.97,0,*55
1491447731.83,59674,13.19,72830.8,-6.13,-6.97,-6.97,0,*5D
1491447733.09,59675,13.19,72830.5,-6.13,-6.97,-6.93,0,*58
1491447734.36,59676,13.19,72832.5,-6.11,-6.97,-6.93,0,*59
1491447735.63,59677,13.19,72826.8,-6.11,-6.97,-7.05,0,*56
1491447736.91,59678,13.19,72820.0,-6.11,-6.93,-6.97,0,*57
1491447738.16,59679,13.19,72808.8,-6.13,-6.93,-6.93,0,*50
1491447739.41,59680,13.19,72804.0,-6.13,-6.93,-6.93,0,*56
1491447740.64,59681,13.19,72812.8,-6.11,-6.89,-6.89,0,*55
1491447741.86,59682,13.19,72824.5,-6.11,-6.89,-6.89,0,*56
1491447743.12,59683,13.19,72838.3,-6.11,-6.93,-6.81,0,*54
1491447744.39,59684,13.19,72840.8,-6.11,-6.93,-6.93,0,*50
1491447745.67,59685,13.19,72846.0,-6.11,-6.97,-6.97,0,*51
1491447746.9,59686,13.19,72840.8,-6.11,-7.19,-7.11,0,*5A
1491447748.13,59687,13.19,72846.0,-6.11,-7.23,-7.19,0,*5A
1491447749.36,59688,13.19,72842.8,-6.11,-7.23,-7.23,0,*5C
1491447750.63,59689,13.19,72846.0,-6.11,-6.97,-6.93,0,*59
1491447751.89,59690,13.19,72846.3,-6.11,-6.93,-6.89,0,*5E
1491447753.16,59691,13.19,72842.8,-6.11,-6.97,-6.93,0,*50
1491447754.43,59692,13.19,72838.5,-6.11,-7.05,-7.05,0,*57
1491447755.67,59693,13.19,72838.5,-6.13,-7.05,-7.05,0,*54
1491447756.9,59694,13.19,72842.0,-6.13,-7.31,-7.23,0,*50
1491447758.13,59695,13.19,72838.3,-6.11,-7.11,-7.19,0,*58
1491447759.35,59696,13.19,72836.8,-6.13,-7.11,-7.31,0,*53
1491447760.61,59697,13.19,72842.0,-6.13,-7.35,-7.35,0,*50
1491447761.86,59698,13.19,72838.8,-6.13,-7.35,-7.35,0,*5F
1491447763.06,59699,13.19,72838.3,-6.13,-7.23,-7.19,0,*57
1491447764.29,59700,13.19,72838.8,-6.13,-7.11,-6.97,0,*50
1491447765.54,59701,13.19,72844.8,-6.13,-6.97,-6.97,0,*5E
1491447766.79,59702,13.19,72842.5,-6.13,-6.97,-6.97,0,*5D
1491447768.04,59703,13.19,72842.8,-6.13,-6.97,-6.97,0,*5C
1491447769.26,59704,13.19,72846.8,-6.13,-6.89,-6.93,0,*50
1491447770.49,59705,13.19,72846.3,-6.13,-6.89,-6.93,0,*51
1491447771.74,59706,13.19,72844.3,-6.13,-6.93,-6.93,0,*59
1491447772.99,59707,13.19,72842.5,-6.13,-6.97,-6.97,0,*58
1491447774.24,59708,13.19,72846.3,-6.13,-6.97,-6.97,0,*57
1491447775.44,59709,13.19,72844.8,-6.13,-6.89,-6.89,0,*56
1491447776.64,59710,13.19,72846.3,-6.13,-6.89,-6.89,0,*5E
1491447777.87,59711,13.19,72844.3,-6.13,-6.93,-6.89,0,*54
1491447779.12,59712,13.19,72846.5,-6.13,-6.93,-6.93,0,*5C
1491447780.37,59713,13.19,72840.5,-6.13,-6.93,-6.93,0,*5D
1491447781.63,59714,13.19,72844.8,-6.13,-6.93,-6.93,0,*5A
1491447782.85,59715,13.19,72840.0,-6.13,-6.93,-6.89,0,*50
1491447784.05,59716,13.19,72840.3,-6.13,-6.89,-6.89,0,*58
1491447785.25,59717,13.19,72840.0,-6.13,-6.89,-6.89,0,*59
1491447786.46,59718,13.19,72840.5,-6.13,-6.89,-6.81,0,*5E
1491447787.66,59719,13.19,72844.3,-6.13,-6.89,-6.81,0,*5F
1491447788.91,59720,13.19,72844.8,-6.13,-6.93,-6.93,0,*5D
1491447790.17,59721,13.19,72842.3,-6.13,-6.93,-6.93,0,*5C
1491447791.44,59722,13.19,72842.0,-6.11,-6.97,-6.97,0,*5D
1491447792.72,59723,13.19,72840.0,-6.11,-6.97,-6.97,0,*5C
1491447793.99,59724,13.19,72846.8,-6.11,-6.97,-6.97,0,*5B
1491447795.24,59725,13.19,72840.5,-6.11,-7.31,-7.19,0,*50
1491447796.47,59726,13.19,72844.3,-6.11,-7.19,-7.23,0,*50
1491447797.68,59727,13.19,72844.3,-6.13,-7.23,-7.23,0,*5A
1491447798.91,59728,13.19,72846.8,-6.13,-7.05,-7.11,0,*50
1491447800.15,59729,13.19,72846.5,-6.13,-6.97,-7.05,0,*5E
1491447801.36,59730,13.19,72846.3,-6.13,-7.19,-7.19,0,*5C
1491447802.58,59731,13.19,72850.5,-6.13,-7.23,-7.31,0,*5E
1491447803.81,59732,13.19,72844.5,-6.13,-7.31,-7.23,0,*5D
1491447805.02,59733,13.19,72844.8,-6.13,-7.19,-7.23,0,*56
1491447806.22,59734,13.19,72842.0,-6.13,-7.19,-7.19,0,*58
1491447807.43,59735,13.19,72844.5,-6.13,-7.19,-7.11,0,*51
1491447808.64,59736,13.19,72848.5,-6.13,-7.11,-7.11,0,*5A
1491447809.87,59737,13.19,72846.8,-6.13,-7.19,-7.31,0,*51
1491447811.08,59738,13.19,72846.8,-6.13,-7.19,-7.23,0,*5D
1491447812.28,59739,13.19,72844.3,-6.13,-7.19,-7.19,0,*55
1491447813.49,59740,13.19,72842.8,-6.13,-7.19,-7.11,0,*53
1491447814.74,59741,13.19,72834.5,-6.17,-7.27,-7.35,0,*5D
1491447815.97,59742,13.19,72832.0,-6.13,-6.97,-7.11,0,*56
1491447817.21,59743,13.19,72834.3,-6.13,-6.97,-7.05,0,*52
1491447818.44,59744,13.19,72832.3,-6.17,-7.11,-7.01,0,*5A
1491447819.69,59745,13.19,72830.3,-6.17,-7.01,-7.01,0,*5A
1491447820.93,59746,13.19,72832.8,-6.17,-6.97,-6.97,0,*59
1491447822.16,59747,13.19,72828.5,-6.13,-6.93,-6.89,0,*57
1491447823.39,59748,13.19,72830.8,-6.13,-6.89,-6.93,0,*58
1491447824.61,59749,13.19,72830.3,-6.13,-6.93,-6.89,0,*59
1491447825.87,59750,13.19,72832.3,-6.13,-6.93,-6.93,0,*5A
1491447827.09,59751,13.19,72832.3,-6.13,-6.89,-6.93,0,*50
1491447828.32,59752,13.19,72832.8,-6.13,-6.93,-6.89,0,*53
1491447829.57,59753,13.19,72832.3,-6.13,-6.93,-6.93,0,*59
1491447830.82,59754,13.19,72832.5,-6.13,-6.93,-6.93,0,*5E
1491447832.02,59755,13.19,72834.5,-6.13,-6.89,-6.89,0,*5F
1491447833.22,59756,13.19,72836.3,-6.13,-6.89,-6.89,0,*5C
1491447834.47,59757,13.19,72838.5,-6.13,-6.93,-6.93,0,*5D
1491447835.72,59758,13.19,72840.0,-6.13,-6.93,-6.93,0,*52
1491447836.98,59759,13.19,72844.3,-6.13,-6.93,-6.93,0,*53
1491447838.2,59760,13.19,72842.8,-6.13,-6.89,-6.93,0,*52
1491447839.45,59761,13.19,72840.5,-6.13,-6.93,-6.93,0,*58
1491447840.68,59762,13.19,72840.8,-6.13,-6.93,-6.89,0,*50
1491447841.93,59763,13.19,72846.8,-6.13,-6.93,-6.93,0,*5A
1491447843.18,59764,13.19,72844.5,-6.13,-6.93,-6.93,0,*5D
1491447844.39,59765,13.19,72852.0,-6.13,-7.19,-7.11,0,*54
1491447845.6,59766,13.19,72844.3,-6.13,-7.11,-7.19,0,*57
1491447846.8,59767,13.19,72846.3,-6.13,-7.23,-7.19,0,*57
1491447848.01,59768,13.19,72846.3,-6.13,-7.23,-7.23,0,*51
1491447849.25,59769,13.19,72842.8,-6.13,-7.31,-7.31,0,*50
1491447850.5,59770,13.19,72840.8,-6.17,-7.35,-7.39,0,*50
1491447851.73,59771,13.19,72836.5,-6.17,-7.23,-7.27,0,*59
1491447852.97,59772,13.19,72834.8,-6.13,-6.97,-7.05,0,*50
1491447854.22,59773,13.19,72834.8,-6.13,-6.93,-6.97,0,*5F
1491447855.45,59774,13.19,72836.3,-6.13,-6.93,-6.89,0,*57
1491447856.7,59775,13.19,72832.5,-6.17,-6.97,-7.01,0,*57
1491447857.94,59776,13.19,72830.0,-6.17,-7.01,-7.01,0,*5A
1491447859.19,59777,13.19,72834.8,-6.17,-6.93,-6.93,0,*5B
1491447860.45,59778,13.19,72838.0,-6.13,-6.93,-6.93,0,*50
1491447861.7,59779,13.19,72842.8,-6.17,-6.97,-6.97,0,*55
1491447862.9,59780,13.19,72846.8,-6.17,-7.11,-7.11,0,*53
1491447864.12,59781,13.19,72844.5,-6.17,-7.15,-7.01,0,*57
1491447865.37,59782,13.19,72840.3,-6.17,-7.01,-7.01,0,*51
1491447866.6,59783,13.19,72840.5,-6.17,-6.93,-6.85,0,*57
1491447867.84,59784,13.19,72850.0,-6.17,-7.01,-7.01,0,*57
1491447869.05,59785,13.19,72844.5,-6.17,-7.11,-7.11,0,*56
1491447870.29,59786,13.19,72848.8,-6.17,-7.01,-7.01,0,*55
1491447871.54,59787,13.19,72850.3,-6.17,-7.01,-6.97,0,*5A
1491447872.82,59788,13.19,72844.3,-6.19,-7.05,-7.01,0,*51
1491447874.07,59789,13.19,72838.8,-6.17,-6.97,-6.97,0,*5A
1491447875.29,59790,13.19,72840.8,-6.17,-7.01,-7.11,0,*53
1491447876.54,59791,13.19,72840.8,-6.17,-7.01,-7.01,0,*53
1491447877.78,59792,13.19,72836.3,-6.17,-7.01,-7.01,0,*50
1491447879.03,59793,13.19,72832.5,-6.17,-6.93,-6.93,0,*51
1491447880.28,59794,13.19,72838.5,-6.17,-6.93,-6.93,0,*56
1491447881.49,59795,13.19,72840.8,-6.13,-6.89,-6.81,0,*5B
1491447882.72,59796,13.19,72840.8,-6.13,-6.93,-6.89,0,*5B
1491447883.94,59797,13.19,72842.5,-6.17,-6.93,-6.85,0,*52
1491447885.14,59798,13.19,72838.5,-6.13,-6.81,-6.77,0,*57
1491447886.35,59799,13.19,72834.0,-6.13,-6.81,-6.81,0,*5F
1491447887.56,59800,13.19,72830.8,-6.13,-6.81,-6.81,0,*50
1491447888.81,59801,13.19,72836.3,-6.13,-6.93,-6.93,0,*51
1491447890.06,59802,13.19,72838.8,-6.13,-6.97,-7.05,0,*58
1491447891.31,59803,13.19,72836.8,-6.13,-6.97,-6.97,0,*53
1491447892.56,59804,13.19,72834.8,-6.13,-6.97,-6.97,0,*54
1491447893.81,59805,13.19,72834.3,-6.13,-6.97,-6.97,0,*55
1491447895.06,59806,13.19,72838.3,-6.13,-7.05,-6.97,0,*5C
1491447896.29,59807,13.19,72834.3,-6.13,-6.97,-6.89,0,*58
1491447897.53,59808,13.19,72838.0,-6.13,-6.97,-7.05,0,*52
1491447898.78,59809,13.19,72838.5,-6.13,-7.05,-6.97,0,*53
1491447899.99,59810,13.19,72836.5,-6.13,-7.19,-7.19,0,*51
1491447901.23,59811,13.19,72838.8,-6.13,-7.05,-7.05,0,*50
1491447902.48,59812,13.19,72840.0,-6.13,-6.93,-6.93,0,*53
1491447903.68,59813,13.19,72840.5,-6.13,-6.81,-6.89,0,*5A
1491447904.91,59814,13.19,72846.0,-6.13,-6.89,-6.93,0,*5E
1491447906.16,59815,13.19,72842.5,-6.13,-6.93,-6.93,0,*54
1491447907.36,59816,13.19,72836.5,-6.13,-6.89,-6.89,0,*57
1491447908.57,59817,13.19,72834.0,-6.13,-6.81,-6.81,0,*56
1491447909.77,59818,13.19,72834.0,-6.13,-6.89,-6.89,0,*59
1491447910.99,59819,13.19,72828.3,-6.13,-6.93,-6.89,0,*53
1491447912.19,59820,13.19,72852.0,-6.13,-6.89,-6.89,0,*52
1491447913.39,59821,13.19,72852.0,-6.17,-6.85,-6.85,0,*57
1491447914.59,59822,13.19,72848.0,-6.13,-6.81,-6.77,0,*59
1491447915.79,59823,13.19,72850.0,-6.13,-6.43,-6.39,0,*5C
1491447917.01,59824,13.19,72848.0,-6.13,-6.63,-6.55,0,*53
1491447918.21,59825,13.19,72852.5,-6.13,-6.69,-6.55,0,*58
1491447919.42,59826,13.19,72854.0,-6.13,-6.81,-6.81,0,*54
1491447920.62,59827,13.19,72850.8,-6.13,-6.81,-6.81,0,*55
1491447921.83,59828,13.19,72850.3,-6.13,-6.77,-6.77,0,*5A
1491447923.04,59829,13.19,72844.3,-6.13,-6.81,-6.81,0,*5B
1491447924.26,59830,13.19,72844.3,-6.13,-6.93,-6.89,0,*58
1491447925.47,59831,13.19,72848.5,-6.13,-6.77,-6.81,0,*5B
1491447926.68,59832,13.19,72850.8,-6.13,-6.81,-6.81,0,*51
1491447927.93,59833,13.19,72850.0,-6.13,-6.93,-6.93,0,*50
1491447929.19,59834,13.25,72850.3,-6.13,-6.93,-6.93,0,*57
1491447930.44,59835,13.19,72844.3,-6.13,-6.93,-6.93,0,*56
1491447931.69,59836,13.19,72838.0,-6.13,-6.97,-6.97,0,*55
1491447932.91,59837,13.19,72836.8,-6.13,-7.19,-7.05,0,*59
1491447934.12,59838,13.19,72838.3,-6.13,-7.11,-7.19,0,*53
1491447935.34,59839,13.19,72832.5,-6.13,-7.11,-6.97,0,*55
1491447936.55,59840,13.19,72834.0,-6.13,-7.11,-7.19,0,*5C
1491447937.8,59841,13.19,72836.0,-6.13,-6.97,-7.05,0,*5F
1491447939.05,59842,13.19,72838.3,-6.13,-6.97,-6.97,0,*56
1491447940.3,59843,13.19,72836.8,-6.13,-6.93,-6.97,0,*53
1491447941.55,59844,13.19,72834.8,-6.13,-7.05,-6.97,0,*5A
1491447942.8,59845,13.19,72822.5,-6.13,-6.97,-6.97,0,*51
1491447944.03,59846,13.19,72818.5,-6.17,-7.01,-7.11,0,*57
1491447945.23,59847,13.19,72820.3,-6.13,-7.11,-7.11,0,*53
1491447946.48,59848,13.19,72826.5,-6.13,-7.05,-6.97,0,*56
1491447947.73,59849,13.19,72824.5,-6.13,-6.93,-6.97,0,*59
1491447948.93,59850,13.19,72836.5,-6.13,-6.89,-6.89,0,*55
1491447950.13,59851,13.19,72840.8,-6.13,-6.89,-6.89,0,*54
1491447951.38,59852,13.19,72842.5,-6.17,-6.97,-6.97,0,*53
1491447952.63,59853,13.25,72844.8,-6.13,-6.93,-6.97,0,*52
1491447953.89,59854,13.19,72842.8,-6.13,-6.97,-6.97,0,*51
1491447955.13,59855,13.19,72842.5,-6.13,-6.97,-7.05,0,*5A
1491447956.38,59856,13.19,72840.0,-6.13,-6.97,-6.97,0,*53
1491447957.63,59857,13.19,72840.3,-6.13,-6.97,-6.97,0,*52
1491447958.83,59858,13.19,72842.0,-6.13,-6.89,-6.89,0,*5D
1491447960.04,59859,13.19,72840.8,-6.13,-6.81,-6.77,0,*55
1491447961.24,59860,13.19,72842.0,-6.13,-6.81,-6.81,0,*56
1491447962.45,59861,13.19,72842.3,-6.13,-6.81,-6.89,0,*5F
1491447963.66,59862,13.19,72842.5,-6.13,-6.81,-6.81,0,*54
1491447964.89,59863,13.19,72840.5,-6.13,-6.93,-6.81,0,*56
1491447966.1,59864,13.19,72840.3,-6.13,-6.81,-6.81,0,*52
1491447967.31,59865,13.19,72840.0,-6.13,-6.81,-6.81,0,*53
1491447968.51,59866,13.19,72844.0,-6.13,-6.81,-6.77,0,*59
1491447969.73,59867,13.19,72842.0,-6.13,-6.89,-6.93,0,*5A
1491447970.93,59868,13.19,72844.3,-6.13,-6.89,-6.89,0,*5E
1491447972.19,59869,13.19,72840.5,-6.13,-6.93,-6.93,0,*5F
1491447973.39,59870,13.19,72844.3,-6.13,-6.89,-6.81,0,*5F
1491447974.59,59871,13.19,72848.8,-6.13,-6.81,-6.77,0,*5F
1491447975.8,59872,13.19,72846.8,-6.13,-6.81,-6.81,0,*55
1491447977.01,59873,13.19,72844.3,-6.13,-6.81,-6.81,0,*54
1491447978.22,59874,13.19,72846.3,-6.13,-6.89,-6.81,0,*5B
1491447979.42,59875,13.19,72844.8,-6.13,-6.89,-6.81,0,*5A
1491447980.63,59876,13.19,72840.3,-6.13,-6.81,-6.81,0,*51
1491447981.84,59877,13.19,72846.0,-6.13,-6.77,-6.81,0,*59
1491447983.04,59878,13.19,72840.5,-6.13,-6.81,-6.77,0,*56
1491447984.23,59879,13.19,72840.8,-6.13,-6.69,-6.69,0,*5E
1491447985.43,59880,13.19,72840.5,-6.13,-6.77,-6.69,0,*57
1491447986.63,59881,13.19,72842.3,-6.13,-6.81,-6.69,0,*5F
1491447987.83,59882,13.19,72844.5,-6.13,-6.77,-6.77,0,*5A
1491447989.06,59883,13.19,72848.0,-6.13,-6.77,-6.63,0,*5E
1491447990.28,59884,13.19,72844.5,-6.13,-6.69,-6.63,0,*56
1491447991.53,59885,13.19,72846.0,-6.11,-6.55,-6.63,0,*5A
1491447992.78,59886,13.19,72844.0,-6.11,-6.55,-6.63,0,*59
1491447994.02,59887,13.19,72848.0,-6.11,-6.63,-6.69,0,*57
1491447995.27,59888,13.19,72844.3,-6.11,-6.69,-6.63,0,*58
1491447996.49,59889,13.19,72846.0,-6.11,-6.69,-6.55,0,*5C
1491447997.73,59890,13.19,72842.5,-6.09,-6.63,-6.63,0,*52
1491447998.93,59891,13.19,72844.8,-6.09,-6.59,-6.59,0,*53
1491448000.18,59892,13.19,72844.0,-6.11,-6.63,-6.51,0,*58
1491448001.38,59893,13.19,72844.3,-6.09,-6.59,-6.51,0,*59
1491448002.58,59894,13.19,72840.8,-6.09,-6.59,-6.47,0,*59
1491448003.8,59895,13.19,72842.3,-6.09,-6.59,-6.63,0,*5E
1491448005.02,59896,13.19,72840.3,-6.11,-6.69,-6.69,0,*5D
1491448006.26,59897,13.19,72842.8,-6.09,-6.63,-6.63,0,*55
1491448007.46,59898,13.19,72844.5,-6.09,-6.59,-6.59,0,*5A
1491448008.66,59899,13.19,72840.8,-6.09,-6.59,-6.47,0,*54
1491448009.91,59900,13.19,72842.5,-6.09,-6.63,-6.63,0,*5A
1491448011.15,59901,13.19,72836.5,-6.09,-6.63,-6.63,0,*5B
1491448012.35,59902,13.19,72840.3,-6.09,-6.59,-6.59,0,*58
1491448013.59,59903,13.19,72840.5,-6.09,-6.63,-6.63,0,*59
1491448014.82,59904,13.19,72840.8,-6.09,-6.73,-6.63,0,*5F
1491448016.01,59905,13.19,72838.5,-6.09,-6.73,-6.77,0,*5B
1491448017.21,59906,13.19,72838.0,-6.09,-6.77,-6.77,0,*5C
1491448018.41,59907,13.19,72838.3,-6.09,-6.77,-6.77,0,*5D
1491448019.61,59908,13.19,72838.0,-6.09,-6.77,-6.77,0,*52
1491448020.85,59909,13.19,72838.0,-6.09,-6.63,-6.63,0,*53
1491448022.06,59910,13.19,72836.5,-6.09,-6.51,-6.47,0,*5C
1491448023.26,59911,13.19,72836.5,-6.09,-6.51,-6.47,0,*5D
1491448024.45,59912,13.19,72838.5,-6.09,-6.47,-6.39,0,*50
1491448025.65,59913,13.19,72838.5,-6.09,-6.47,-6.47,0,*58
1491448026.85,59914,13.19,72838.5,-6.09,-6.47,-6.47,0,*5F
1491448028.08,59915,13.19,72838.5,-6.07,-6.51,-6.39,0,*5E
1491448029.31,59916,13.19,72840.5,-6.07,-6.51,-6.51,0,*53
1491448030.51,59917,13.19,72838.0,-6.05,-6.55,-6.55,0,*50
1491448031.71,59918,13.19,72838.3,-6.05,-6.59,-6.51,0,*57
1491448032.9,59919,13.19,72838.8,-6.05,-6.73,-6.73,0,*5E
1491448034.15,59920,13.19,72836.3,-6.05,-6.97,-6.97,0,*54
1491448035.38,59921,13.19,72838.8,-6.07,-7.19,-7.19,0,*57
1491448036.61,59922,13.19,72838.8,-6.07,-7.19,-7.19,0,*54
1491448037.88,59923,13.19,72836.8,-6.07,-7.05,-7.01,0,*51
1491448039.16,59924,13.19,72840.3,-6.07,-6.93,-6.93,0,*52
1491448040.38,59925,13.19,72836.8,-6.07,-6.89,-6.85,0,*5F
1491448041.62,59926,13.19,72838.3,-6.07,-6.63,-6.73,0,*51
1491448042.87,59927,13.19,72836.5,-6.07,-6.63,-6.59,0,*58
1491448044.06,59928,13.19,72838.8,-6.05,-6.47,-6.47,0,*5C
1491448045.29,59929,13.19,72840.3,-6.07,-6.59,-6.59,0,*5F
1491448046.56,59930,13.19,72842.3,-6.07,-6.63,-6.63,0,*57
1491448047.83,59931,13.19,72842.0,-6.07,-6.63,-6.63,0,*56
1491448049.02,59932,13.19,72834.8,-6.05,-6.69,-6.59,0,*54
1491448050.21,59933,13.19,72836.5,-6.05,-6.69,-6.69,0,*56
1491448051.41,59934,13.19,72836.5,-6.05,-6.73,-6.73,0,*51
1491448052.63,59935,13.19,72842.8,-6.07,-6.85,-6.89,0,*5E
1491448053.83,59936,13.19,72840.5,-6.05,-6.81,-6.81,0,*53
1491448055.06,59937,13.19,72838.3,-6.07,-6.89,-6.85,0,*5C
1491448056.26,59938,13.19,72842.8,-6.05,-6.73,-6.81,0,*50
1491448057.48,59939,13.19,72840.8,-6.07,-6.77,-6.73,0,*5A
1491448058.71,59940,13.19,72840.0,-6.07,-6.73,-6.73,0,*50
1491448059.9,59941,13.19,72844.0,-6.05,-6.69,-6.73,0,*58
1491448061.09,59942,13.19,72842.5,-6.05,-6.69,-6.73,0,*5B
1491448062.31,59943,13.19,72840.3,-6.07,-6.85,-6.89,0,*5F
1491448063.53,59944,13.19,72842.8,-6.07,-6.85,-6.85,0,*54
1491448064.73,59945,13.19,72840.3,-6.05,-6.81,-6.73,0,*5A
1491448065.93,59946,13.19,72840.3,-6.05,-6.73,-6.73,0,*54
1491448067.12,59947,13.19,72846.0,-6.05,-6.73,-6.73,0,*55
1491448068.31,59948,13.19,72836.5,-6.05,-6.73,-6.69,0,*51
1491448069.54,59949,13.19,72838.5,-6.07,-6.73,-6.77,0,*5D
1491448070.73,59950,13.19,72842.3,-6.05,-6.73,-6.69,0,*58
1491448071.95,59951,13.19,72846.8,-6.07,-6.73,-6.73,0,*50
1491448073.14,59952,13.19,72840.0,-6.05,-6.69,-6.69,0,*51
1491448074.33,59953,13.19,72840.8,-6.05,-6.69,-6.73,0,*5B
1491448075.52,59954,13.19,72836.0,-6.05,-6.69,-6.73,0,*5C
1491448076.71,59955,13.19,72836.3,-6.05,-6.59,-6.69,0,*55
1491448077.91,59956,13.19,72840.0,-6.05,-6.59,-6.69,0,*56
1491448079.1,59957,13.19,72840.3,-6.05,-6.69,-6.69,0,*54
1491448080.29,59958,13.19,72840.8,-6.05,-6.73,-6.69,0,*50
1491448081.48,59959,13.19,72842.3,-6.05,-6.73,-6.69,0,*51
1491448082.67,59960,13.19,72838.8,-6.05,-6.69,-6.69,0,*50
1491448083.88,59961,13.19,72834.3,-6.01,-6.63,-6.55,0,*50
1491448085.11,59962,13.19,72838.0,-6.07,-6.59,-6.73,0,*58
1491448086.3,59963,13.19,72836.8,-6.05,-6.55,-6.69,0,*5C
1491448087.5,59964,13.19,72834.0,-6.05,-6.55,-6.55,0,*54
1491448088.7,59965,13.19,72834.5,-6.05,-6.59,-6.59,0,*55
1491448089.9,59966,13.19,72836.0,-6.01,-6.51,-6.51,0,*52
1491448091.1,59967,13.19,72842.0,-6.05,-6.59,-6.55,0,*5B
1491448092.3,59968,13.19,72840.0,-6.01,-6.55,-6.51,0,*58
1491448093.5,59969,13.19,72846.0,-6.01,-6.55,-6.51,0,*59
1491448094.69,59970,13.19,72838.8,-6.01,-6.55,-6.55,0,*55
1491448095.89,59971,13.19,72840.3,-6.01,-6.55,-6.55,0,*54
1491448097.11,59972,13.19,72840.0,-5.99,-6.55,-6.51,0,*51
1491448098.31,59973,13.19,72842.0,-6.01,-6.55,-6.51,0,*52
1491448099.5,59974,13.19,72842.5,-6.01,-6.55,-6.55,0,*51
1491448100.72,59975,13.19,72840.3,-6.01,-6.63,-6.55,0,*55
1491448101.92,59976,13.19,72844.0,-6.01,-6.51,-6.55,0,*57
1491448103.11,59977,13.19,72844.3,-6.01,-6.55,-6.51,0,*56
1491448104.31,59978,13.19,72844.0,-6.01,-6.51,-6.55,0,*59
1491448105.51,59979,13.19,72844.3,-6.01,-6.55,-6.51,0,*58
1491448106.74,59980,13.19,72846.5,-5.99,-6.51,-6.51,0,*58
1491448107.96,59981,13.19,72840.3,-5.99,-6.55,-6.51,0,*5D